Location: Borgo
(42.3939°N, 9.2791°E)
Time: 01:58:18
(UTC+00:00)

H-2A R/B - Pass Details

Date: 24 January 2021
Orbit: 734 x 836 km, 98.2° (Epoch: 08 March)

Event Time Altitude Azimuth Distance (km) Brightness Sun altitude
Rises 17:44:02 0° 152° (SSE) 3,175 5.0 -14.3°
Reaches altitude 10° 17:46:20 10° 148° (SSE) 2,267 4.2 -14.7°
Maximum altitude 17:51:10 54° 72° (ENE) 924 2.0 -15.6°
Drops below altitude 10° 17:56:11 10° 356° (N) 2,342 4.4 -16.5°
Sets 17:58:35 0° 352° (N) 3,291 5.3 -16.9°
